Weather History for Phuket, Thailand

Change the Weather History Date:

Saturday, February 22, 2014

  Actual Average Record
Temperature  
Mean Temperature 81 °F -  
Max Temperature 94 °F 92 °F 98 °F (2005)
Min Temperature 68 °F 76 °F 68 °F (2014)
Cooling Degree Days 16    
Growing Degree Days 31 (Base 50)    
Moisture  
Dew Point 69 °F    
Average Humidity 67    
Maximum Humidity 89    
Minimum Humidity 32    
Precipitation  
Precipitation 0.00 in 0.07 in - ()
Sea Level Pressure  
Sea Level Pressure 29.92 in    
Wind  
Wind Speed 5 mph ()    
Max Wind Speed 16 mph    
Max Gust Speed -    
Visibility 5.6 miles    
Events      
Averages and records for this station are not official NWS values.
T = Trace of Precipitation, MM = Missing Value Source: Averaged Metar Reports

Daily Weather History Graph

Daily Weather History Graph

Search for Another Location

Airport:

Trip Planner

Search our weather history database for the weather conditions in past years. The results will help you decide how hot, cold, wet, or windy it might be!

Date:

Astronomy

Feb. 22, 2014 Rise Set
Actual Time 6:42 AM ICT 6:37 PM ICT
Civil Twilight 6:21 AM ICT 6:59 PM ICT
Nautical Twilight 5:57 AM ICT 7:23 PM ICT
Astronomical Twilight 5:32 AM ICT 7:48 PM ICT
Moon No Moon Rise 11:49 AM ICT (2/22)
Length of Visible Light 12h 37m
Length of Day
11h 55m
Waning Gibbous, 55% of the Moon is Illuminated
Feb 22
Waning Gibbous
Feb 23
Last Quarter
Mar 1
New
Mar 8
First Quarter
Mar 17
Full

Hourly Weather History & Observations

Time (ICT) Temp. Heat Index Dew Point Humidity Pressure Visibility Wind Dir Wind Speed Gust Speed Precip Events Conditions
12:00 AM 75.2 °F - 71.6 °F 89% 29.98 in 5.0 mi Calm Calm - N/A   Mostly Cloudy
12:30 AM 75.2 °F - 71.6 °F 89% 29.95 in 5.0 mi Variable 1.2 mph - N/A   Mostly Cloudy
1:00 AM 77 °F - 74 °F 88% 29.89 in 6 mi Calm Calm - -   Mist
1:00 AM 75.2 °F - 71.6 °F 89% 29.95 in 5.0 mi Variable 1.2 mph - N/A   Mostly Cloudy
1:30 AM 77.0 °F - 69.8 °F 78% 29.95 in 5.0 mi Variable 1.2 mph - N/A   Mostly Cloudy
2:00 AM 75.2 °F - 71.6 °F 89% 29.92 in 5.0 mi Calm Calm - N/A   Mostly Cloudy
2:30 AM 73.4 °F - 69.8 °F 88% 29.92 in 5.0 mi Calm Calm - N/A   Mostly Cloudy
3:00 AM 73.4 °F - 69.8 °F 88% 29.92 in 5.0 mi Calm Calm - N/A   Mostly Cloudy
3:30 AM 73.4 °F - 69.8 °F 88% 29.92 in 5.0 mi Calm Calm - N/A   Mostly Cloudy
4:00 AM 74 °F - 71 °F 86% 29.88 in 5 mi Calm Calm - -   Mist
4:00 AM 73.4 °F - 68.0 °F 83% 29.92 in 5.0 mi Variable 1.2 mph - N/A   Mostly Cloudy
4:30 AM 71.6 °F - 68.0 °F 88% 29.92 in 5.0 mi Calm Calm - N/A   Mostly Cloudy
5:30 AM 73.4 °F - 68.0 °F 83% 29.92 in 5.0 mi Variable 2.3 mph - N/A   Mostly Cloudy
6:00 AM 75.2 °F - 68.0 °F 78% 29.92 in 5.0 mi Variable 2.3 mph - N/A   Mostly Cloudy
6:30 AM 77.0 °F - 68.0 °F 74% 29.95 in 5.6 mi ENE 5.8 mph - N/A   Mostly Cloudy
7:00 AM 73 °F - 69 °F 84% 29.90 in 6 mi Calm Calm - -   Scattered Clouds
7:00 AM 77.0 °F - 68.0 °F 74% 29.95 in 6.2 mi East 6.9 mph - N/A   Mostly Cloudy
7:30 AM 78.8 °F - 68.0 °F 69% 29.95 in 6.2 mi ENE 8.1 mph - N/A   Mostly Cloudy
8:00 AM 80.6 °F 83.9 °F 69.8 °F 70% 29.95 in 6.2 mi ENE 9.2 mph - N/A   Scattered Clouds
8:30 AM 80.6 °F 83.2 °F 68.0 °F 65% 29.98 in 6.2 mi East 11.5 mph - N/A   Scattered Clouds
9:00 AM 82.4 °F 85.4 °F 68.0 °F 62% 29.98 in 6.2 mi East 12.7 mph - N/A   Scattered Clouds
9:30 AM 82.4 °F 84.6 °F 66.2 °F 58% 29.98 in 6.2 mi East 15.0 mph - N/A   Scattered Clouds
10:00 AM 87 °F - 71 °F 51% 29.94 in 6 mi East 11.5 mph - -   Scattered Clouds
10:00 AM 84.2 °F 87.3 °F 68.0 °F 58% 29.98 in 6.2 mi East 16.1 mph - N/A   Scattered Clouds
10:30 AM 84.2 °F 87.3 °F 68.0 °F 58% 29.98 in 6.2 mi East 15.0 mph - N/A   Scattered Clouds
11:00 AM 86.0 °F 88.2 °F 66.2 °F 51% 29.98 in 6.2 mi ENE 15.0 mph - N/A   Scattered Clouds
11:30 AM 86.0 °F 89.4 °F 68.0 °F 55% 29.98 in 6.2 mi East 15.0 mph - N/A   Scattered Clouds
12:00 PM 87.8 °F 91.4 °F 68.0 °F 52% 29.95 in 6.2 mi East 12.7 mph - N/A   Scattered Clouds
12:30 PM 87.8 °F 90.4 °F 66.2 °F 49% 29.95 in 6.2 mi East 12.7 mph - N/A   Scattered Clouds
1:00 PM 90 °F - 69 °F 40% 29.90 in 6 mi East 11.5 mph - -   Scattered Clouds
1:00 PM 89.6 °F 93.4 °F 68.0 °F 49% 29.92 in 6.2 mi East 11.5 mph - N/A   Scattered Clouds
1:30 PM 91.4 °F 94.0 °F 66.2 °F 43% 29.92 in 6.2 mi ENE 13.8 mph - N/A   Scattered Clouds
2:00 PM 89.6 °F 91.1 °F 64.4 °F 43% 29.89 in 6.2 mi ENE 11.5 mph - N/A   Scattered Clouds
2:30 PM 91.4 °F 93.2 °F 64.4 °F 41% 29.89 in 6.2 mi ENE 11.5 mph - N/A   Scattered Clouds
3:00 PM 91.4 °F 93.2 °F 64.4 °F 41% 29.86 in 6.2 mi ENE 11.5 mph - N/A   Scattered Clouds
3:30 PM 91.4 °F 93.2 °F 64.4 °F 41% 29.83 in 6.2 mi ENE 11.5 mph - N/A   Scattered Clouds
4:00 PM 94 °F - 67 °F 32% 29.81 in 6 mi East 11.5 mph - -   Scattered Clouds
4:00 PM 91.4 °F 93.2 °F 64.4 °F 41% 29.83 in 6.2 mi East 9.2 mph - N/A   Scattered Clouds
4:30 PM 91.4 °F 93.2 °F 64.4 °F 41% 29.83 in 6.2 mi East 9.2 mph - N/A   Scattered Clouds
5:00 PM 91.4 °F 93.2 °F 64.4 °F 41% 29.83 in 6.2 mi East 8.1 mph - N/A   Scattered Clouds
5:30 PM 91.4 °F 94.0 °F 66.2 °F 43% 29.83 in 6.2 mi East 5.8 mph - N/A   Scattered Clouds
6:00 PM 86.0 °F 91.8 °F 71.6 °F 62% 29.83 in 5.6 mi NW 12.7 mph - N/A   Scattered Clouds
6:30 PM 84.2 °F 89.6 °F 71.6 °F 66% 29.86 in 5.0 mi NW 10.4 mph - N/A   Scattered Clouds
7:00 PM 85 °F - 74 °F 62% 29.83 in 5 mi WNW 4.6 mph - -   Mist
7:00 PM 82.4 °F 87.2 °F 71.6 °F 70% 29.86 in 5.0 mi NW 9.2 mph - N/A   Scattered Clouds
7:30 PM 82.4 °F 87.2 °F 71.6 °F 70% 29.89 in 5.0 mi NW 8.1 mph - N/A   Scattered Clouds
8:00 PM 82.4 °F 87.2 °F 71.6 °F 70% 29.89 in 5.0 mi NW 8.1 mph - N/A   Scattered Clouds
8:30 PM 80.6 °F 84.6 °F 71.6 °F 74% 29.92 in 5.0 mi Calm Calm - N/A   Scattered Clouds
9:00 PM 78.8 °F - 71.6 °F 78% 29.92 in 5.0 mi Calm Calm - N/A   Scattered Clouds
9:30 PM 78.8 °F - 71.6 °F 78% 29.95 in 5.0 mi Calm Calm - N/A   Scattered Clouds
10:00 PM 79 °F - 74 °F 80% 29.91 in 6 mi Calm Calm - -   Mist
10:00 PM 77.0 °F - 69.8 °F 78% 29.95 in 5.0 mi SSE 3.5 mph - N/A   Scattered Clouds
10:30 PM 77.0 °F - 71.6 °F 83% 29.95 in 5.0 mi Variable 2.3 mph - N/A   Scattered Clouds
11:00 PM 77.0 °F - 71.6 °F 83% 29.95 in 5.0 mi ESE 2.3 mph - N/A   Scattered Clouds
11:30 PM 78.8 °F - 69.8 °F 74% 29.95 in 5.0 mi SSE 2.3 mph - N/A   Scattered Clouds